[[{"header":{"parameterUnit":"m.s-1","parameterCategory":1,"la1":30.2991,"la2":30.254,"lo1":-89.0895,"lo2":-89.0444,"dy":0.0017,"dx":0.0017,"nx":28,"ny":28,"refTime":"2024-12-16T09:00:00:Z","depth":0,"parameterNumber":2,"parameterNumberName":"U-component_of_WINDS"},"data":[0,0,0,0,0,0,0,0,0,0,0,0,0,0,0,0,0,0,0,0,0,0,0,0,0,0,0,0,0,0,0,0,0,0,0,0,0,0,0,0,0,0,0,0,0,0,0,0,0,0,0,0,0,0,0,0,0,0,-0.6721,-0.6721,0,-0.6707,-0.6707,-0.6707,-0.6687,-0.6687,-0.6686,-0.6686,-0.6672,-0.6672,-0.6672,0,0,0,0,0,0,0,0,0,0,0,0,0,-0.6732,-0.6731,-0.6721,-0.6721,-0.6721,-0.6707,-0.6707,-0.6707,-0.6687,-0.6687,-0.6686,-0.6686,-0.6672,-0.6672,-0.6672,0,0,0,0,0,0,0,0,0,0,0,0,0,-0.6723,-0.6731,-0.6722,-0.6709,-0.6708,-0.6707,-0.6707,-0.6707,-0.6687,-0.6687,-0.6686,-0.6686,-0.6672,-0.6672,-0.6672,-0.6682,0,0,-0.6672,-0.6672,0,0,0,0,0,0,0,0,-0.6724,-0.6723,-0.6711,-0.671,-0.6709,-0.6698,-0.6706,-0.6699,-0.6687,-0.6695,-0.6686,-0.6685,-0.6681,-0.668,-0.6679,-0.6681,-0.668,-0.6672,-0.6671,-0.6671,-0.6671,0,0,0,0,0,0,0,-0.6724,-0.6723,-0.6716,-0.6711,-0.671,-0.6705,-0.6703,-0.6704,-0.6691,-0.6694,-0.6693,-0.6692,-0.668,-0.6679,-0.6678,-0.668,-0.6672,-0.6671,-0.6671,-0.6671,-0.6691,-0.6691,0,0,0,0,0,0,-0.6727,-0.6724,-0.6716,-0.6715,-0.6715,-0.6705,-0.6703,-0.6702,-0.6691,-0.6689,-0.6692,-0.6691,-0.6679,-0.6678,-0.6678,-0.669,-0.6671,-0.6671,-0.6671,-0.669,-0.6691,-0.6692,0,0,0,0,0,0,-0.6727,-0.6726,-0.6717,-0.6719,-0.6718,-0.6706,-0.6705,-0.6702,-0.6701,-0.6689,-0.6687,-0.6693,-0.6679,-0.6678,-0.6681,-0.6689,-0.6671,-0.6671,-0.669,-0.6691,-0.6691,-0.6713,0,0,0,0,0,0,-0.6727,-0.6726,-0.673,-0.672,-0.6718,-0.672,-0.6705,-0.6702,-0.6701,-0.6699,-0.669,-0.6688,-0.6678,-0.6681,-0.6681,-0.6688,-0.6671,-0.6689,-0.669,-0.6691,-0.6711,-0.6714,-0.6717,0,0,0,0,0,-0.6728,-0.6736,-0.673,-0.6729,-0.6722,-0.6721,-0.672,-0.6709,-0.6701,-0.6705,-0.6698,-0.6688,-0.6688,-0.6682,-0.6681,-0.6689,-0.6688,-0.669,-0.6691,-0.671,-0.6714,-0.6717,0,0,0,0,0,0,-0.6748,-0.6735,-0.6728,-0.6733,-0.6728,-0.6717,-0.6722,-0.6713,-0.671,-0.6709,-0.6695,-0.6693,-0.6699,-0.6694,-0.6687,-0.6698,-0.6687,-0.6688,-0.6701,-0.6705,-0.6707,-0.6709,-0.6671,0,0,0,0,0,-0.6753,-0.6753,-0.6742,-0.6747,-0.6745,-0.6734,-0.6733,-0.6725,-0.672,-0.6718,-0.671,-0.6706,-0.6705,-0.6704,-0.6702,-0.671,-0.6708,-0.6715,-0.6718,-0.672,-0.6722,-0.6726,-0.673,-0.6696,-0.6696,-0.6696,0,0,-0.6763,-0.6756,-0.6757,-0.6751,-0.6747,-0.6748,-0.6732,-0.6734,-0.6734,-0.6718,-0.6721,-0.6715,-0.6709,-0.6715,-0.6717,-0.6711,-0.673,-0.6722,-0.6724,-0.6724,-0.6728,-0.6731,-0.6734,-0.6697,-0.6697,-0.6696,0,0,-0.6783,-0.6777,-0.6782,-0.6778,-0.6771,-0.6763,-0.6764,-0.6755,-0.6751,-0.6753,-0.6741,-0.6742,-0.674,-0.6736,-0.6734,-0.6753,-0.6744,-0.6753,-0.6767,-0.6772,-0.6775,-0.6777,-0.6785,-0.6788,-0.6754,-0.6754,-0.6754,0,-0.6797,-0.6798,-0.6786,-0.6788,-0.6786,-0.6771,-0.6776,-0.6772,-0.6765,-0.6765,-0.6758,-0.6756,-0.675,-0.6756,-0.6761,-0.6759,-0.676,-0.6754,-0.6775,-0.6778,-0.678,-0.6787,-0.679,-0.6755,-0.6755,-0.6755,-0.6755,0,-0.6816,-0.6816,-0.6821,-0.6815,-0.6813,-0.6817,-0.6806,-0.6806,-0.6798,-0.6792,-0.6795,-0.6788,-0.6785,-0.6785,-0.6778,-0.679,-0.6787,-0.6778,-0.6766,-0.6784,-0.6791,-0.6794,-0.6757,-0.6757,-0.6756,-0.6756,0,0,-0.6848,-0.6835,-0.6837,-0.6835,-0.6826,-0.6827,-0.683,-0.6827,-0.6828,-0.6823,-0.6826,-0.6825,-0.6817,-0.6815,-0.6807,-0.6811,-0.6828,-0.6801,-0.6801,-0.6808,-0.6842,-0.685,-0.6853,-0.6821,-0.6822,-0.6822,-0.6843,0,-0.6867,-0.6872,-0.6861,-0.6869,-0.687,-0.6856,-0.6858,-0.6854,-0.6848,-0.6848,-0.6841,-0.6841,-0.683,-0.6828,-0.6832,-0.6825,-0.6835,-0.6823,-0.6825,-0.6825,-0.6828,-0.6856,-0.6864,-0.6884,-0.6845,-0.6846,-0.6846,0,-0.689,-0.6887,-0.6895,-0.6886,-0.6886,-0.6889,-0.6886,-0.6886,-0.6881,-0.6876,-0.6874,-0.6864,-0.6867,-0.6855,-0.686,-0.6852,-0.6852,-0.6849,-0.685,-0.685,-0.6837,-0.6859,-0.689,-0.6894,-0.685,-0.6849,-0.6849,0,-0.6914,-0.6912,-0.6917,-0.6915,-0.6905,-0.6907,-0.6903,-0.6897,-0.6896,-0.6894,-0.6893,-0.6891,-0.689,-0.6889,-0.6879,-0.6871,-0.6885,-0.6872,-0.6882,-0.6883,-0.6887,-0.6887,-0.692,-0.6885,-0.6885,-0.6885,-0.6884,0,-0.6937,-0.6943,-0.6928,-0.6931,-0.6937,-0.6924,-0.6931,-0.6925,-0.692,-0.6922,-0.6909,-0.6912,-0.6898,-0.6899,-0.6891,-0.6897,-0.6896,-0.6893,-0.6892,-0.6895,-0.6896,-0.6896,-0.6895,-0.6885,-0.6885,-0.6885,-0.6885,0,-0.6966,-0.6956,-0.696,-0.695,-0.6948,-0.6953,-0.6945,-0.6947,-0.694,-0.6943,-0.6943,-0.6932,-0.6933,-0.6923,-0.6921,-0.6916,-0.6926,-0.6921,-0.6928,-0.6927,-0.6938,-0.6937,-0.6973,-0.6977,-0.6938,-0.6939,-0.6939,0,-0.6981,-0.6985,-0.6976,-0.6977,-0.6973,-0.6974,-0.6973,-0.6961,-0.6961,-0.6956,-0.6959,-0.6959,-0.6958,-0.6959,-0.6952,-0.6951,-0.6946,-0.6959,-0.6946,-0.695,-0.6948,-0.6949,-0.695,-0.6962,-0.6962,-0.6963,-0.6963,0,-0.7011,-0.7006,-0.7005,-0.7003,-0.7003,-0.7,-0.6997,-0.6999,-0.6986,-0.6986,-0.6987,-0.6986,-0.6985,-0.6985,-0.6982,-0.6978,-0.6969,-0.6967,-0.6969,-0.6974,-0.6978,-0.6978,-0.6936,-0.6966,-0.6966,-0.6966,-0.6966,-0.6966,-0.7034,-0.7038,-0.7032,-0.7032,-0.7028,-0.7026,-0.7028,-0.7022,-0.7022,-0.702,-0.7013,-0.7015,-0.701,-0.7006,-0.7003,-0.7004,-0.6998,-0.7002,-0.7003,-0.7004,-0.7007,-0.6977,-0.7004,-0.7004,-0.7004,-0.7003,-0.7003,0,-0.7064,-0.706,-0.706,-0.7056,-0.7057,-0.7047,-0.7043,-0.7044,-0.7046,-0.7042,-0.7042,-0.7043,-0.7043,-0.7035,-0.7035,-0.7038,-0.7033,-0.7038,-0.7038,-0.7038,-0.7012,-0.701,-0.7041,-0.7041,-0.7041,-0.7041,-0.7041,-0.7041,-0.708,-0.7086,-0.708,-0.7084,-0.7079,-0.7081,-0.708,-0.7078,-0.7075,-0.7077,-0.7077,-0.7072,-0.7067,-0.7066,-0.7066,-0.7063,-0.7064,-0.7071,-0.7067,-0.7043,-0.7039,-0.7036,-0.7035,-0.7071,-0.7071,-0.7093,-0.7094,-0.7094]},{"header":{"parameterUnit":"m.s-1","parameterCategory":1,"la1":30.2991,"la2":30.254,"lo1":-89.0895,"lo2":-89.0444,"dy":0.0017,"dx":0.0017,"nx":28,"ny":28,"refTime":"2024-12-16T09:00:00:Z","depth":0,"parameterNumber":3,"parameterNumberName":"V-component_of_WINDS"},"data":[0,0,0,0,0,0,0,0,0,0,0,0,0,0,0,0,0,0,0,0,0,0,0,0,0,0,0,0,0,0,0,0,0,0,0,0,0,0,0,0,0,0,0,0,0,0,0,0,0,0,0,0,0,0,0,0,0,0,-0.986,-0.986,0,-0.9856,-0.9856,-0.9856,-0.9817,-0.9816,-0.9815,-0.9814,-0.9811,-0.9812,-0.9812,0,0,0,0,0,0,0,0,0,0,0,0,0,-0.9832,-0.9833,-0.986,-0.986,-0.986,-0.9856,-0.9856,-0.9856,-0.9818,-0.9816,-0.9815,-0.9814,-0.9811,-0.9812,-0.9813,0,0,0,0,0,0,0,0,0,0,0,0,0,-0.9838,-0.9833,-0.986,-0.984,-0.9838,-0.9856,-0.9856,-0.9856,-0.9818,-0.9816,-0.9815,-0.9813,-0.981,-0.9811,-0.9813,-0.985,0,0,-0.9816,-0.9817,0,0,0,0,0,0,0,0,-0.9838,-0.9839,-0.9843,-0.9841,-0.9839,-0.9836,-0.9845,-0.9854,-0.9818,-0.9825,-0.9814,-0.9813,-0.982,-0.9821,-0.9823,-0.9849,-0.9849,-0.9816,-0.9817,-0.9818,-0.9818,0,0,0,0,0,0,0,-0.9837,-0.9839,-0.9858,-0.9843,-0.9841,-0.9831,-0.983,-0.9847,-0.9831,-0.9825,-0.9822,-0.9822,-0.9819,-0.9822,-0.9823,-0.9849,-0.9816,-0.9818,-0.9818,-0.9819,-0.9906,-0.9908,0,0,0,0,0,0,-0.984,-0.9839,-0.9858,-0.9858,-0.9835,-0.9833,-0.9832,-0.9838,-0.9831,-0.9828,-0.9823,-0.982,-0.9821,-0.9821,-0.9823,-0.9866,-0.9818,-0.9819,-0.982,-0.9905,-0.9907,-0.9908,0,0,0,0,0,0,-0.9839,-0.9842,-0.9858,-0.9848,-0.9849,-0.9835,-0.9842,-0.9839,-0.9842,-0.983,-0.9827,-0.9829,-0.982,-0.9821,-0.9843,-0.9865,-0.9819,-0.9821,-0.9903,-0.9905,-0.9908,-0.9953,0,0,0,0,0,0,-0.9838,-0.9842,-0.9856,-0.9848,-0.985,-0.988,-0.9844,-0.984,-0.9844,-0.984,-0.9835,-0.9832,-0.9819,-0.9842,-0.9845,-0.9866,-0.9822,-0.9901,-0.9904,-0.9907,-0.995,-0.9957,-0.9963,0,0,0,0,0,-0.9838,-0.9869,-0.9857,-0.9859,-0.9867,-0.9881,-0.9882,-0.9865,-0.9846,-0.986,-0.9852,-0.9833,-0.9862,-0.9844,-0.9847,-0.987,-0.9899,-0.9903,-0.9907,-0.9947,-0.9956,-0.9963,0,0,0,0,0,0,-0.9879,-0.9867,-0.9854,-0.9883,-0.9884,-0.9874,-0.9892,-0.9875,-0.9881,-0.9877,-0.9856,-0.9855,-0.9881,-0.9877,-0.9857,-0.9905,-0.9877,-0.9882,-0.9907,-0.9915,-0.9922,-0.9923,-0.9823,0,0,0,0,0,-0.9891,-0.9904,-0.9893,-0.992,-0.9921,-0.9906,-0.9912,-0.9899,-0.9898,-0.9898,-0.9892,-0.9892,-0.9901,-0.9908,-0.9916,-0.9949,-0.9947,-0.9965,-0.9972,-0.9978,-0.9982,-1.0,-1.0008,-0.992,-0.992,-0.992,0,0,-0.9917,-0.9912,-0.9922,-0.9928,-0.9927,-0.994,-0.9906,-0.9922,-0.9932,-0.99,-0.9922,-0.9917,-0.9915,-0.9944,-0.9956,-0.9942,-1.0006,-0.9982,-0.9987,-0.9988,-1.0005,-1.0013,-1.0021,-0.9923,-0.9922,-0.9922,0,0,-0.9972,-0.9969,-0.9992,-0.9991,-0.999,-0.998,-0.9985,-0.9979,-0.9975,-0.9996,-0.9972,-0.9984,-1.0,-1.0,-1.0002,-1.0057,-1.0039,-1.006,-1.0096,-1.0113,-1.012,-1.0126,-1.0147,-1.0155,-1.0064,-1.0064,-1.0064,0,-1.0004,-1.0024,-1.0005,-1.0023,-1.0027,-0.9999,-1.0022,-1.0022,-1.0023,-1.0026,-1.001,-1.003,-1.0027,-1.0056,-1.0069,-1.0071,-1.0078,-1.0061,-1.0121,-1.0127,-1.0132,-1.0152,-1.0159,-1.0067,-1.0067,-1.0066,-1.0066,0,-1.0064,-1.0078,-1.0097,-1.0099,-1.0105,-1.0125,-1.0109,-1.0117,-1.0104,-1.0096,-1.0118,-1.0113,-1.012,-1.0126,-1.0113,-1.0152,-1.0144,-1.0124,-1.0096,-1.0144,-1.0162,-1.0169,-1.0071,-1.007,-1.0069,-1.0068,0,0,-1.0146,-1.0137,-1.0145,-1.0146,-1.0142,-1.0152,-1.0171,-1.0178,-1.0186,-1.0187,-1.0203,-1.0217,-1.02,-1.0202,-1.0189,-1.0204,-1.0249,-1.0183,-1.0183,-1.0197,-1.0294,-1.031,-1.0318,-1.0237,-1.0238,-1.0239,-1.0295,0,-1.0199,-1.0231,-1.0215,-1.0249,-1.0262,-1.0236,-1.0252,-1.0252,-1.0245,-1.0255,-1.0246,-1.0258,-1.0233,-1.0235,-1.0249,-1.0241,-1.0269,-1.0236,-1.0252,-1.0253,-1.0255,-1.0328,-1.0344,-1.0396,-1.0301,-1.0302,-1.0303,0,-1.0266,-1.0271,-1.0307,-1.0301,-1.0306,-1.0321,-1.0327,-1.0336,-1.0335,-1.0329,-1.0332,-1.0315,-1.0333,-1.0304,-1.0329,-1.0308,-1.0313,-1.031,-1.0312,-1.0314,-1.0282,-1.0333,-1.0412,-1.0421,-1.0314,-1.0313,-1.0312,0,-1.0323,-1.0338,-1.0362,-1.0364,-1.0357,-1.0369,-1.0367,-1.0364,-1.0369,-1.0374,-1.0377,-1.0384,-1.0387,-1.0393,-1.0378,-1.0358,-1.0406,-1.0375,-1.0402,-1.0402,-1.0414,-1.0414,-1.0497,-1.0415,-1.0415,-1.0415,-1.0415,0,-1.0385,-1.0409,-1.0388,-1.0403,-1.0428,-1.0409,-1.0434,-1.0429,-1.0427,-1.0441,-1.0417,-1.043,-1.041,-1.042,-1.0409,-1.0432,-1.0434,-1.0429,-1.0426,-1.0432,-1.0433,-1.0436,-1.0433,-1.0417,-1.0416,-1.0416,-1.0416,0,-1.0454,-1.0441,-1.0465,-1.0457,-1.0456,-1.0475,-1.0468,-1.0482,-1.0473,-1.049,-1.0493,-1.0479,-1.0491,-1.0476,-1.0486,-1.0479,-1.0511,-1.0501,-1.0511,-1.0509,-1.0537,-1.0535,-1.0626,-1.0638,-1.0548,-1.0548,-1.0549,0,-1.0495,-1.0513,-1.0507,-1.0514,-1.0514,-1.0526,-1.0531,-1.0513,-1.052,-1.052,-1.0534,-1.0543,-1.055,-1.057,-1.0561,-1.0569,-1.056,-1.0592,-1.0562,-1.0567,-1.0562,-1.0562,-1.0564,-1.0599,-1.06,-1.0601,-1.0601,0,-1.057,-1.0563,-1.0572,-1.0579,-1.0587,-1.0591,-1.0594,-1.0601,-1.0582,-1.0591,-1.0603,-1.0608,-1.0619,-1.0629,-1.0634,-1.0632,-1.0614,-1.0611,-1.0617,-1.0624,-1.063,-1.0629,-1.053,-1.0609,-1.0608,-1.0608,-1.0607,-1.0607,-1.0627,-1.0642,-1.064,-1.0651,-1.0651,-1.0655,-1.0667,-1.066,-1.067,-1.0677,-1.0666,-1.0681,-1.0679,-1.0685,-1.0685,-1.0696,-1.0683,-1.0692,-1.0695,-1.0698,-1.0703,-1.0627,-1.0697,-1.0697,-1.0696,-1.0696,-1.0696,0,-1.0702,-1.07,-1.071,-1.0715,-1.0724,-1.0706,-1.0708,-1.0717,-1.073,-1.073,-1.0738,-1.0752,-1.0762,-1.0754,-1.0762,-1.0773,-1.0765,-1.0776,-1.0775,-1.0775,-1.0714,-1.0708,-1.0782,-1.0782,-1.0782,-1.0782,-1.0782,-1.0782,-1.0743,-1.0767,-1.0759,-1.0783,-1.078,-1.0796,-1.0798,-1.0801,-1.0802,-1.0818,-1.0827,-1.0821,-1.0818,-1.0826,-1.0834,-1.0832,-1.0836,-1.0851,-1.0845,-1.0788,-1.078,-1.0771,-1.0766,-1.0851,-1.0851,-1.0906,-1.0907,-1.0907]}]]